QPF
0.00 0.00 0.00 0.00 0.00 0.00 0.00 0.00 0.00 0.00 0.00 0.00 0.00 0.00 0.00 0.00 0.00 0.00 0.00 0.00 0.00 0.00 0.00 0.00 0.00 0.00 0.00 0.00 0.00 0.00 0.00 0.01 0.01 0.03 0.01 0.01 0.01 0.00 0.00 0.00 0.00 0.00 0.00 0.00
0.00 0.00 0.00 0.00 0.00 0.00 0.00 0.00 0.00 0.00 0.00 0.00 0.00 0.00 0.00 0.00 0.00 0.00 0.00 0.00 0.00 0.00 0.00 0.00 0.00 0.00 0.00 0.00 0.00 0.00 0.01 0.01 0.01 0.01 0.01 0.04 0.07 0.06 0.01 0.00 0.00 0.00 0.00 0.00
0.00 0.00 0.00 0.00 0.00 0.00 0.00 0.00 0.00 0.00 0.00 0.00 0.00 0.00 0.00 0.00 0.00 0.00 0.00 0.00 0.00 0.00 0.00 0.00 0.00 0.00 0.00 0.00 0.00 0.00 0.00 0.02 0.01 0.02 0.01 0.00 0.03 0.02 0.00 0.00 0.00 0.00 0.00 0.00
0.00 0.00 0.00 0.00 0.00 0.00 0.00 0.00 0.00 0.00 0.00 0.00 0.00 0.00 0.00 0.00 0.00 0.00 0.00 0.00 0.00 0.00 0.00 0.00 0.00 0.00 0.00 0.00 0.00 0.00 0.00 0.00 0.01 0.02 0.01 0.01 0.00 0.00 0.01 0.01 0.02 0.02 0.00 0.00
0.00 0.00 0.00 0.00 0.00 0.00 0.00 0.00 0.00 0.00 0.00 0.00 0.00 0.02 0.00 0.00 0.00 0.00 0.00 0.00 0.00 0.00 0.00 0.00 0.00 0.00 0.00 0.02 0.05 0.09 0.06 0.04 0.03 0.01 0.00 0.00 0.00 0.01 0.02 0.03 0.03 0.02 0.00 0.00
0.00 0.00 0.00 0.00 0.00 0.00 0.00 0.00 0.00 0.00 0.01 0.02 0.00 0.03 0.01 0.00 0.00 0.00 0.00 0.00 0.00 0.00 0.00 0.00 0.00 0.00 0.05 0.14 0.08 0.11 0.09 0.07 0.05 0.02 0.00 0.00 0.00 0.00 0.00 0.01 0.03 0.03 0.01 0.00
0.00 0.00 0.00 0.00 0.00 0.00 0.00 0.00 0.01 0.00 0.01 0.00 0.00 0.02 0.02 0.00 0.00 0.00 0.00 0.00 0.00 0.00 0.00 0.00 0.00 0.00 0.09 0.17 0.16 0.16 0.12 0.08 0.05 0.03 0.01 0.00 0.00 0.00 0.00 0.00 0.01 0.02 0.02 0.02
0.00 0.00 0.00 0.00 0.00 0.00 0.00 0.00 0.03 0.03 0.01 0.02 0.02 0.02 0.05 0.02 0.00 0.00 0.00 0.00 0.00 0.00 0.00 0.00 0.00 0.00 0.01 0.04 0.11 0.12 0.09 0.07 0.04 0.01 0.00 0.00 0.00 0.00 0.00 0.00 0.00 0.00 0.01 0.01
0.00 0.00 0.00 0.00 0.00 0.00 0.00 0.00 0.01 0.02 0.02 0.02 0.00 0.01 0.03 0.01 0.00 0.00 0.00 0.00 0.00 0.00 0.00 0.01 0.00 0.00 0.00 0.01 0.02 0.05 0.04 0.02 0.01 0.00 0.00 0.00 0.00 0.00 0.00 0.00 0.00 0.00 0.00 0.00
0.00 0.00 0.00 0.00 0.00 0.00 0.00 0.00 0.01 0.03 0.02 0.02 0.01 0.00 0.02 0.01 0.01 0.00 0.00 0.00 0.00 0.00 0.00 0.00 0.00 0.00 0.00 0.00 0.00 0.00 0.02 0.01 0.01 0.01 0.00 0.00 0.00 0.00 0.00 0.00 0.00 0.00 0.00 0.00
0.00 0.00 0.00 0.00 0.00 0.00 0.00 0.00 0.00 0.00 0.00 0.01 0.00 0.00 0.00 0.00 0.00 0.00 0.00 0.00 0.00 0.00 0.00 0.00 0.00 0.00 0.00 0.00 0.00 0.00 0.00 0.00 0.00 0.00 0.00 0.00 0.00 0.00 0.00 0.00 0.00 0.00 0.00 0.00
0.00 0.00 0.00 0.00 0.00 0.00 0.00 0.02 0.02 0.00 0.00 0.00 0.00 0.00 0.00 0.00 0.00 0.01 0.00 0.00 0.00 0.00 0.00 0.00 0.00 0.00 0.00 0.00 0.00 0.00 0.00 0.00 0.00 0.00 0.00 0.00 0.00 0.00 0.00 0.00 0.00 0.00 0.00 0.00
0.00 0.01 0.00 0.00 0.00 0.00 0.00 0.01 0.02 0.01 0.00 0.00 0.01 0.00 0.01 0.01 0.02 0.01 0.00 0.00 0.00 0.00 0.00 0.00 0.00 0.00 0.00 0.00 0.00 0.00 0.00 0.00 0.00 0.00 0.00 0.00 0.00 0.00 0.00 0.00 0.00 0.00 0.00 0.00
0.00 0.00 0.00 0.00 0.00 0.00 0.00 0.00 0.00 0.02 0.01 0.01 0.01 0.00 0.03 0.03 0.01 0.00 0.00 0.00 0.00 0.00 0.00 0.00 0.00 0.00 0.00 0.00 0.00 0.00 0.00 0.00 0.00 0.00 0.00 0.00 0.00 0.00 0.00 0.00 0.00 0.00 0.00 0.00
0.00 0.00 0.00 0.00 0.00 0.00 0.00 0.00 0.00 0.00 0.01 0.01 0.00 0.00 0.00 0.00 0.00 0.00 0.00 0.00 0.00 0.00 0.00 0.00 0.00 0.00 0.00 0.00 0.00 0.00 0.00 0.00 0.00 0.00 0.00 0.00 0.00 0.00 0.00 0.00 0.00 0.00 0.00 0.00
0.00 0.01 0.01 0.00 0.00 0.00 0.00 0.00 0.00 0.00 0.00 0.00 0.00 0.00 0.00 0.00 0.00 0.00 0.00 0.00 0.00 0.00 0.00 0.00 0.00 0.00 0.00 0.00 0.00 0.00 0.00 0.00 0.00 0.00 0.00 0.00 0.00 0.00 0.00 0.00 0.00 0.00 0.00 0.00
0.00 0.00 0.01 0.00 0.00 0.01 0.00 0.00 0.00 0.00 0.00 0.00 0.00 0.00 0.00 0.00 0.00 0.00 0.00 0.00 0.00 0.00 0.00 0.00 0.00 0.00 0.00 0.00 0.00 0.00 0.00 0.00 0.00 0.00 0.00 0.00 0.00 0.00 0.00 0.00 0.00 0.00 0.00 0.00
0.00 0.00 0.00 0.00 0.00 0.01 0.00 0.00 0.00 0.00 0.00 0.00 0.00 0.00 0.00 0.00 0.00 0.00 0.00 0.00 0.00 0.00 0.00 0.00 0.00 0.00 0.00 0.00 0.00 0.00 0.00 0.00 0.00 0.00 0.00 0.00 0.00 0.00 0.00 0.00 0.00 0.00 0.00 0.00
0.00 0.00 0.00 0.00 0.00 0.00 0.00 0.00 0.00 0.00 0.00 0.00 0.00 0.00 0.00 0.00 0.00 0.00 0.00 0.00 0.00 0.00 0.00 0.00 0.00 0.00 0.00 0.00 0.01 0.00 0.00 0.00 0.00 0.00 0.00 0.00 0.00 0.00 0.00 0.00 0.00 0.00 0.00 0.00
0.00 0.00 0.01 0.01 0.02 0.01 0.00 0.00 0.00 0.00 0.00 0.00 0.00 0.00 0.00 0.00 0.00 0.00 0.00 0.00 0.00 0.00 0.00 0.00 0.00 0.00 0.00 0.00 0.00 0.00 0.00 0.00 0.00 0.00 0.01 0.02 0.01 0.00 0.00 0.00 0.00 0.00 0.00 0.00
0.00 0.00 0.00 0.00 0.01 0.01 0.00 0.00 0.00 0.00 0.00 0.00 0.00 0.00 0.00 0.00 0.00 0.00 0.00 0.00 0.00 0.00 0.00 0.00 0.00 0.00 0.00 0.00 0.00 0.00 0.00 0.00 0.00 0.00 0.00 0.00 0.00 0.00 0.00 0.00 0.00 0.00 0.00 0.00
0.00 0.00 0.00 0.01 0.01 0.00 0.00 0.00 0.00 0.00 0.00 0.00 0.00 0.00 0.00 0.00 0.00 0.00 0.00 0.00 0.00 0.00 0.00 0.00 0.00 0.00 0.00 0.02 0.01 0.00 0.00 0.00 0.00 0.00 0.00 0.00 0.00 0.00 0.00 0.00 0.00 0.00 0.00 0.00
0.00 0.00 0.00 0.01 0.00 0.00 0.00 0.00 0.00 0.00 0.00 0.00 0.00 0.00 0.00 0.00 0.00 0.00 0.00 0.00 0.00 0.00 0.00 0.00 0.00 0.00 0.00 0.00 0.00 0.00 0.00 0.00 0.00 0.00 0.00 0.00 0.00 0.00 0.00 0.00 0.00 0.00 0.00 0.00
0.00 0.00 0.00 0.00 0.00 0.00 0.00 0.00 0.00 0.00 0.00 0.00 0.00 0.00 0.00 0.00 0.00 0.00 0.00 0.00 0.00 0.00 0.00 0.00 0.00 0.01 0.01 0.00 0.00 0.00 0.00 0.00 0.00 0.00 0.00 0.00 0.00 0.00 0.00 0.00 0.00 0.00 0.00 0.00
0.00 0.00 0.00 0.00 0.00 0.00 0.00 0.00 0.00 0.00 0.00 0.00 0.00 0.00 0.00 0.00 0.00 0.00 0.00 0.01 0.01 0.01 0.01 0.01 0.01 0.01 0.01 0.00 0.00 0.00 0.00 0.00 0.00 0.00 0.00 0.00 0.00 0.00 0.00 0.00 0.00 0.00 0.00 0.00
0.00 0.00 0.00 0.00 0.00 0.00 0.00 0.00 0.00 0.00 0.00 0.00 0.00 0.00 0.00 0.01 0.00 0.01 0.01 0.03 0.02 0.03 0.02 0.01 0.02 0.01 0.01 0.01 0.00 0.00 0.00 0.00 0.00 0.00 0.00 0.00 0.00 0.00 0.00 0.00 0.00 0.00 0.00 0.00
MSLP
1007.15 1007.53 1007.58 1007.57 1007.32 1006.94 1006.55 1005.87 1004.78 1003.49 1003.10 1002.17 1001.15 999.98 999.74 999.22 999.04 999.23 999.23 999.31 999.03 998.91 998.65 998.91 999.68 1000.50 1001.74 1003.06 1003.92 1004.75 1005.59 1006.51 1008.04 1008.93 1009.58 1010.12 1010.57 1011.25 1012.00 1012.44 1012.74 1013.49 1013.91 1014.27
1007.88 1007.06 1006.94 1006.66 1006.42 1005.97 1005.38 1005.20 1004.08 1002.48 1002.89 1002.28 1001.71 999.49 999.41 999.38 999.17 999.17 998.93 999.24 999.47 999.00 998.42 998.37 998.93 999.92 1000.56 1001.39 1002.65 1004.04 1004.64 1005.36 1006.62 1007.73 1008.48 1009.58 1010.54 1011.12 1011.65 1012.29 1012.66 1013.24 1013.92 1014.27
1007.56 1006.85 1006.21 1006.42 1006.11 1005.90 1004.34 1005.02 1003.82 1003.33 1003.23 1002.28 1002.11 1000.23 999.89 999.84 999.51 999.37 999.38 999.17 998.87 999.51 999.44 998.81 998.54 998.83 999.37 1000.49 1001.47 1002.27 1003.06 1003.89 1005.18 1006.77 1008.02 1009.27 1010.42 1011.23 1011.73 1012.16 1012.60 1012.91 1013.49 1014.16
1006.89 1006.23 1005.80 1005.66 1005.42 1006.02 1003.97 1005.01 1004.18 1004.26 1004.02 1003.30 1003.34 1002.23 999.20 1000.85 1000.66 1000.81 1001.59 1001.29 1001.64 1001.05 1000.55 1000.25 999.51 999.18 999.12 999.57 1000.25 1001.50 1002.56 1003.64 1004.47 1005.92 1007.19 1007.79 1009.08 1010.20 1010.88 1011.60 1012.38 1013.15 1013.39 1013.94
1006.08 1005.99 1005.42 1005.44 1005.03 1004.89 1004.51 1004.76 1005.13 1005.46 1005.52 1005.30 1002.05 1004.93 1000.60 1002.56 1002.29 1002.76 1003.67 1003.87 1003.80 1003.70 1002.51 1001.84 1000.56 1000.15 999.43 999.39 1000.45 1001.57 1002.74 1003.89 1004.54 1005.05 1005.89 1007.00 1008.22 1009.36 1010.25 1011.38 1012.33 1013.07 1013.60 1013.90
1006.37 1006.31 1006.11 1005.01 1004.68 1004.78 1004.85 1005.28 1005.66 1006.12 1006.53 1006.31 1004.37 1006.10 1003.71 1004.73 1005.00 1005.21 1005.21 1004.83 1004.68 1004.63 1003.74 1002.95 1001.45 1000.72 1000.81 1000.65 1000.75 1001.59 1002.51 1003.87 1004.58 1005.18 1005.55 1006.34 1007.37 1008.57 1009.82 1011.01 1012.03 1012.99 1013.52 1014.04
1006.75 1006.30 1005.74 1005.58 1005.61 1005.31 1005.70 1006.19 1007.48 1008.06 1007.61 1006.40 1006.29 1006.63 1006.27 1007.33 1006.73 1006.36 1007.01 1006.73 1006.32 1005.88 1005.50 1003.65 1003.32 1002.88 1002.56 1003.15 1002.31 1002.58 1003.03 1003.86 1004.54 1005.52 1006.15 1006.51 1007.06 1007.84 1008.90 1010.11 1011.24 1012.26 1013.16 1013.78
1007.67 1006.86 1006.62 1006.74 1006.86 1006.88 1007.13 1007.85 1008.93 1009.19 1008.72 1008.25 1007.74 1007.74 1008.36 1009.15 1009.05 1008.22 1007.81 1008.16 1007.68 1006.99 1006.68 1006.22 1004.81 1004.61 1004.36 1004.23 1003.74 1003.45 1003.67 1003.79 1003.99 1005.27 1005.83 1006.49 1006.98 1007.59 1008.33 1009.49 1010.59 1011.67 1012.52 1013.19
1008.69 1007.78 1007.05 1007.63 1007.92 1008.25 1008.18 1008.55 1009.37 1010.13 1009.88 1009.65 1008.76 1008.46 1008.91 1009.50 1009.79 1009.29 1009.66 1009.89 1008.95 1007.83 1007.48 1007.66 1007.18 1006.15 1004.97 1005.12 1005.69 1004.11 1004.20 1004.47 1004.57 1005.18 1005.88 1006.73 1007.03 1007.47 1008.19 1009.07 1010.22 1011.22 1011.99 1012.78
1009.35 1008.95 1008.07 1007.95 1008.17 1008.76 1009.27 1010.10 1010.16 1010.82 1011.31 1010.54 1009.20 1008.53 1008.82 1009.95 1010.18 1010.19 1009.96 1010.17 1009.73 1008.91 1007.96 1008.11 1008.05 1008.09 1006.89 1005.70 1004.92 1004.52 1004.68 1004.39 1004.77 1005.30 1005.67 1006.27 1006.91 1007.51 1008.06 1008.84 1009.76 1010.56 1011.38 1012.16
1010.04 1010.02 1009.34 1009.18 1008.94 1009.11 1009.88 1010.52 1011.23 1011.95 1012.00 1011.38 1010.62 1009.59 1009.59 1010.15 1010.56 1010.14 1010.28 1009.72 1009.19 1008.38 1008.03 1008.21 1007.91 1007.91 1008.00 1006.95 1004.88 1004.92 1005.01 1005.11 1005.37 1005.68 1005.85 1006.45 1006.97 1007.38 1007.79 1008.49 1009.35 1010.07 1010.95 1011.64
1011.07 1011.56 1011.02 1010.05 1009.41 1009.20 1010.02 1010.68 1011.94 1012.76 1012.86 1012.06 1011.54 1010.33 1009.35 1009.92 1010.09 1009.65 1008.73 1008.43 1008.05 1007.80 1007.59 1007.46 1007.65 1007.06 1006.87 1007.19 1006.32 1005.52 1005.09 1005.30 1004.94 1005.54 1005.96 1006.51 1006.72 1007.22 1007.70 1008.16 1008.94 1009.76 1010.61 1011.59
1011.65 1012.08 1012.33 1010.92 1009.99 1009.65 1010.45 1011.23 1012.19 1013.29 1012.99 1012.02 1011.53 1010.40 1009.67 1009.85 1009.70 1009.08 1008.50 1007.79 1007.34 1007.17 1007.08 1006.92 1006.69 1006.11 1005.72 1005.90 1005.97 1005.91 1005.89 1005.36 1004.99 1004.89 1005.79 1006.41 1006.95 1007.00 1007.38 1007.66 1008.35 1009.50 1010.38 1011.32
1012.43 1013.02 1013.20 1012.59 1011.38 1011.00 1011.05 1011.01 1011.55 1012.12 1012.86 1012.20 1011.11 1010.23 1009.54 1009.00 1008.10 1007.35 1006.99 1006.65 1006.11 1006.19 1006.26 1006.07 1006.07 1005.67 1005.72 1005.40 1005.28 1005.30 1004.86 1004.88 1004.68 1004.55 1005.17 1005.65 1006.22 1006.51 1006.98 1007.57 1008.10 1008.83 1009.87 1010.91
1013.39 1013.62 1013.57 1012.91 1012.30 1011.77 1011.46 1010.97 1010.84 1011.17 1011.15 1011.02 1010.17 1009.35 1008.33 1007.83 1007.31 1006.83 1006.38 1006.02 1005.76 1005.84 1005.72 1005.68 1005.83 1005.75 1005.09 1004.47 1004.23 1004.19 1004.09 1004.06 1004.17 1004.47 1005.16 1005.80 1005.53 1005.44 1006.25 1007.28 1007.99 1008.95 1009.63 1010.68
1014.28 1014.44 1014.46 1013.94 1013.53 1012.20 1011.86 1011.29 1010.89 1010.45 1009.92 1009.43 1008.94 1008.26 1007.94 1007.35 1006.91 1006.67 1006.41 1006.10 1005.91 1005.95 1005.99 1005.83 1005.59 1005.32 1005.17 1005.13 1004.77 1004.32 1004.07 1004.02 1004.38 1004.25 1004.32 1005.07 1005.38 1005.05 1005.95 1006.95 1007.94 1008.83 1009.63 1010.51
1014.69 1014.77 1015.04 1014.16 1013.73 1012.93 1012.15 1010.94 1010.55 1009.89 1009.46 1009.08 1008.58 1008.17 1007.85 1007.56 1007.27 1006.94 1006.59 1006.65 1006.60 1006.44 1006.13 1005.96 1005.79 1005.64 1005.47 1005.51 1005.41 1005.07 1004.46 1003.79 1004.25 1004.39 1004.42 1004.62 1004.62 1004.80 1005.83 1006.79 1007.77 1008.75 1009.77 1010.56
1014.10 1014.74 1014.95 1014.58 1014.14 1012.94 1011.16 1010.39 1009.97 1009.56 1009.37 1008.97 1008.67 1008.45 1008.33 1007.94 1007.40 1007.00 1006.89 1006.97 1006.90 1006.67 1006.39 1006.22 1006.14 1005.80 1005.47 1005.15 1005.01 1004.93 1004.75 1003.85 1003.78 1004.17 1004.10 1003.95 1004.00 1004.52 1005.62 1006.43 1007.46 1008.51 1009.58 1010.62
1013.39 1014.18 1014.70 1015.02 1014.07 1012.72 1011.49 1010.39 1010.07 1009.72 1009.39 1009.16 1009.26 1008.99 1008.61 1008.15 1007.64 1007.61 1007.33 1007.30 1007.03 1006.64 1006.29 1006.00 1005.64 1005.54 1005.14 1005.14 1004.71 1004.70 1004.92 1004.26 1004.06 1004.17 1004.42 1003.84 1003.57 1004.54 1005.50 1006.62 1007.72 1008.55 1009.54 1010.77
1013.18 1013.66 1014.76 1015.47 1014.11 1012.66 1011.30 1009.95 1009.87 1009.46 1009.26 1009.24 1009.36 1009.19 1008.88 1008.45 1008.49 1008.01 1007.20 1007.07 1006.95 1006.64 1006.09 1005.63 1005.29 1004.91 1004.80 1004.77 1004.85 1004.15 1004.73 1005.38 1005.06 1005.18 1004.97 1004.63 1004.12 1004.41 1005.36 1006.20 1007.14 1007.93 1009.18 1010.35
1014.17 1014.23 1014.77 1014.63 1014.14 1012.57 1010.65 1010.11 1009.59 1009.65 1009.86 1009.12 1008.93 1008.67 1008.43 1008.43 1008.23 1007.57 1006.91 1006.49 1006.14 1005.97 1005.74 1005.42 1004.99 1004.78 1004.28 1003.90 1004.23 1005.12 1005.71 1006.18 1006.31 1006.02 1005.59 1005.25 1004.93 1004.98 1005.34 1006.25 1006.98 1007.76 1009.10 1010.39
1015.19 1015.23 1015.22 1014.62 1014.12 1012.46 1010.98 1010.46 1010.47 1009.98 1009.16 1008.91 1008.43 1008.12 1008.10 1007.73 1007.21 1006.75 1006.38 1006.09 1005.80 1005.48 1005.07 1004.65 1004.49 1004.31 1004.11 1003.71 1004.09 1005.51 1005.86 1006.37 1006.36 1006.40 1006.40 1006.20 1005.91 1006.02 1006.35 1006.64 1007.55 1008.40 1008.95 1010.18
1014.74 1014.47 1014.36 1014.19 1012.71 1011.57 1010.64 1010.27 1009.46 1009.10 1008.64 1008.07 1007.68 1007.16 1006.87 1006.57 1006.13 1005.78 1005.57 1005.33 1005.00 1004.53 1004.34 1004.09 1003.99 1003.96 1004.10 1004.66 1004.95 1005.50 1006.16 1006.60 1006.51 1006.83 1007.08 1006.99 1006.85 1006.88 1007.13 1007.40 1007.99 1008.84 1009.53 1010.53
1013.89 1013.39 1013.33 1012.70 1011.40 1010.71 1009.98 1009.31 1008.74 1008.22 1007.68 1007.14 1006.61 1006.18 1005.85 1005.70 1005.32 1005.06 1004.91 1004.57 1004.28 1003.94 1003.84 1003.73 1003.84 1003.67 1004.55 1005.22 1005.89 1006.00 1006.44 1006.44 1006.52 1007.09 1007.46 1007.44 1007.48 1007.68 1007.96 1008.08 1008.33 1009.12 1010.05 1011.19
1013.54 1013.18 1012.09 1011.38 1010.26 1010.03 1009.03 1008.49 1007.88 1007.24 1006.79 1006.30 1005.74 1005.56 1005.19 1005.01 1004.59 1004.45 1004.07 1003.71 1003.42 1003.36 1003.24 1003.38 1003.42 1003.27 1004.46 1005.69 1005.99 1006.18 1006.31 1006.54 1006.95 1007.41 1007.44 1007.64 1007.91 1008.22 1008.50 1008.84 1009.23 1009.74 1010.49 1010.80
1012.20 1011.80 1011.60 1010.50 1009.81 1009.30 1008.31 1007.69 1007.48 1007.15 1006.65 1006.22 1005.78 1005.26 1004.89 1004.49 1004.10 1003.85 1003.63 1003.12 1002.94 1002.84 1002.89 1003.34 1003.67 1003.91 1005.05 1005.36 1005.66 1006.03 1006.32 1006.77 1007.04 1007.36 1007.60 1007.93 1008.33 1008.68 1008.99 1009.54 1010.22 1010.62 1011.07 1011.87
Thickness
5669 5653 5650 5658 5665 5670 5670 5670 5673 5693 5702 5698 5705 5717 5724 5731 5733 5731 5731 5731 5735 5740 5754 5749 5741 5735 5730 5725 5718 5713 5704 5700 5687 5680 5674 5674 5674 5669 5666 5665 5663 5656 5653 5649
5651 5646 5664 5673 5674 5672 5674 5666 5673 5699 5694 5692 5692 5715 5725 5724 5725 5726 5729 5727 5725 5729 5740 5746 5738 5725 5725 5728 5719 5708 5703 5697 5687 5678 5672 5664 5659 5657 5656 5654 5652 5647 5641 5639
5639 5654 5669 5661 5659 5654 5673 5654 5671 5669 5675 5688 5677 5694 5708 5713 5717 5722 5725 5725 5731 5720 5717 5725 5729 5727 5726 5721 5718 5712 5708 5700 5688 5675 5664 5654 5645 5642 5643 5645 5644 5640 5634 5628
5642 5657 5654 5652 5651 5643 5658 5659 5666 5660 5654 5647 5659 5641 5702 5691 5692 5701 5684 5687 5685 5690 5695 5701 5708 5719 5720 5716 5715 5705 5697 5687 5679 5669 5659 5655 5647 5641 5641 5637 5634 5627 5623 5618
5642 5643 5643 5639 5652 5652 5647 5651 5640 5636 5625 5625 5675 5617 5678 5672 5671 5664 5651 5653 5654 5656 5666 5672 5685 5698 5710 5707 5698 5692 5679 5671 5665 5663 5657 5650 5642 5637 5630 5625 5620 5613 5609 5608
5631 5638 5629 5640 5648 5645 5643 5635 5629 5623 5612 5596 5647 5608 5642 5625 5628 5624 5625 5633 5639 5640 5645 5651 5666 5680 5685 5684 5682 5677 5670 5657 5650 5646 5647 5644 5637 5629 5622 5615 5609 5602 5598 5595
5617 5622 5625 5628 5620 5632 5615 5609 5569 5568 5575 5591 5619 5599 5616 5591 5603 5607 5601 5604 5609 5615 5613 5633 5636 5643 5655 5648 5658 5656 5653 5645 5637 5629 5627 5629 5627 5623 5617 5608 5601 5594 5589 5586
5584 5593 5601 5606 5600 5599 5597 5582 5553 5553 5562 5573 5598 5584 5580 5567 5569 5575 5583 5578 5583 5590 5592 5598 5608 5617 5623 5630 5635 5636 5633 5632 5622 5619 5618 5614 5613 5611 5608 5600 5594 5588 5583 5578
5561 5576 5593 5583 5582 5579 5576 5567 5562 5545 5553 5547 5569 5585 5566 5563 5554 5559 5555 5555 5560 5571 5573 5569 5576 5591 5605 5607 5605 5619 5616 5616 5611 5610 5605 5599 5599 5597 5594 5590 5582 5576 5573 5568
5547 5540 5577 5571 5571 5561 5552 5552 5541 5532 5527 5536 5558 5575 5566 5545 5542 5541 5542 5535 5539 5550 5558 5555 5551 5550 5569 5585 5592 5597 5598 5600 5598 5596 5594 5589 5585 5582 5579 5575 5571 5568 5564 5558
5529 5519 5542 5540 5544 5543 5528 5525 5523 5516 5495 5493 5523 5542 5545 5532 5525 5524 5521 5529 5533 5540 5544 5543 5544 5539 5535 5548 5566 5574 5575 5578 5581 5581 5580 5575 5572 5572 5570 5566 5561 5557 5552 5548
5515 5489 5489 5519 5533 5539 5528 5516 5503 5487 5476 5459 5471 5504 5533 5513 5511 5517 5525 5526 5529 5532 5531 5536 5533 5537 5540 5540 5545 5556 5559 5560 5569 5569 5567 5564 5562 5559 5558 5556 5551 5545 5540 5534
5493 5472 5462 5489 5511 5519 5500 5497 5485 5472 5459 5467 5458 5492 5507 5503 5500 5506 5509 5513 5521 5525 5522 5524 5527 5534 5535 5536 5538 5539 5542 5547 5555 5559 5551 5551 5548 5547 5547 5547 5542 5533 5527 5519
5472 5464 5455 5446 5482 5492 5486 5495 5496 5483 5456 5460 5469 5481 5498 5501 5505 5509 5506 5505 5512 5516 5518 5519 5520 5527 5525 5527 5527 5529 5537 5541 5542 5544 5540 5540 5541 5540 5537 5532 5531 5525 5517 5509
5450 5434 5456 5467 5475 5475 5473 5479 5486 5479 5475 5458 5479 5482 5498 5497 5496 5497 5498 5500 5505 5501 5505 5507 5512 5515 5518 5521 5526 5525 5527 5531 5534 5534 5527 5526 5531 5533 5528 5520 5516 5508 5506 5497
5425 5416 5421 5429 5430 5451 5450 5457 5460 5466 5476 5477 5478 5478 5485 5484 5485 5487 5487 5487 5487 5489 5492 5496 5502 5502 5498 5499 5507 5511 5512 5515 5517 5522 5525 5518 5520 5523 5514 5509 5501 5495 5490 5485
5416 5407 5408 5411 5434 5430 5410 5440 5447 5456 5464 5463 5455 5462 5463 5463 5467 5469 5472 5465 5466 5471 5477 5483 5485 5484 5482 5479 5481 5486 5494 5500 5496 5500 5511 5508 5507 5510 5504 5498 5492 5485 5477 5472
5406 5403 5401 5398 5407 5385 5432 5454 5453 5446 5449 5452 5444 5443 5446 5450 5456 5457 5452 5444 5445 5450 5455 5459 5462 5464 5468 5470 5471 5472 5476 5485 5489 5486 5491 5501 5500 5498 5491 5485 5478 5473 5467 5460
5410 5392 5361 5373 5387 5402 5417 5434 5430 5420 5423 5427 5425 5426 5430 5435 5435 5435 5436 5434 5438 5439 5442 5444 5449 5449 5454 5454 5459 5462 5461 5468 5473 5471 5467 5479 5485 5480 5475 5467 5460 5456 5450 5441
5413 5400 5388 5370 5373 5373 5404 5428 5423 5414 5388 5421 5411 5409 5411 5416 5391 5406 5426 5424 5422 5424 5431 5435 5440 5445 5444 5444 5444 5453 5447 5443 5446 5447 5448 5448 5461 5462 5457 5453 5448 5444 5434 5426
5367 5356 5319 5330 5326 5370 5410 5409 5410 5379 5379 5402 5405 5403 5399 5395 5394 5405 5413 5417 5418 5417 5419 5426 5428 5432 5436 5438 5438 5431 5425 5423 5423 5425 5430 5430 5435 5440 5439 5434 5431 5427 5417 5406
5352 5350 5336 5339 5315 5332 5390 5388 5375 5379 5390 5391 5393 5394 5389 5390 5396 5403 5403 5405 5406 5408 5411 5416 5419 5421 5420 5427 5429 5414 5413 5406 5407 5409 5411 5411 5414 5416 5415 5413 5407 5402 5399 5389
5338 5343 5349 5349 5356 5369 5379 5374 5381 5379 5381 5384 5382 5388 5389 5389 5394 5394 5392 5392 5395 5400 5402 5404 5404 5409 5409 5408 5408 5402 5396 5393 5395 5392 5391 5393 5395 5394 5392 5389 5385 5380 5378 5372
5352 5359 5330 5343 5363 5365 5366 5370 5372 5373 5373 5380 5383 5385 5387 5384 5390 5390 5387 5388 5389 5390 5388 5390 5392 5401 5395 5390 5386 5385 5381 5383 5385 5380 5376 5378 5378 5376 5372 5368 5369 5368 5363 5354
5341 5337 5341 5344 5359 5356 5365 5369 5371 5376 5380 5382 5385 5381 5383 5384 5386 5385 5386 5386 5386 5381 5380 5378 5384 5395 5387 5376 5374 5373 5374 5374 5371 5368 5369 5369 5366 5363 5358 5353 5354 5354 5350 5350
5349 5342 5331 5342 5360 5360 5371 5376 5372 5369 5372 5373 5372 5374 5376 5375 5376 5380 5376 5381 5381 5378 5378 5375 5377 5377 5370 5371 5370 5368 5366 5363 5363 5361 5360 5359 5354 5352 5349 5345 5341 5340 5339 5334